Location: Buckland
(65.9785°N, 161.1281°W)
Time: 03:57:28
(UTC+00:00)

Transit 4A - Pass Details

Date: 05 December 2020
Orbit: 864 x 980 km, 66.8° (Epoch: 26 January)

Event Time Altitude Azimuth Distance (km) Brightness Sun altitude
Rises 17:24:07 0° 192° (SSW) 3,659 11.1 -15.7°
Reaches altitude 10° 17:26:54 10° 182° (S) 2,724 10.6 -15.4°
Maximum altitude 17:32:26 32° 122° (ESE) 1,616 9.9 -14.9°
Drops below altitude 10° 17:38:00 10° 62° (ENE) 2,741 10.9 -14.4°
Sets 17:40:49 0° 53° (NE) 3,685 11.4 -14.1°
